This is the latest recevied weather packets stored in our database for station/object W8DRH-13. If no packets are shown the sender has not sent any weather packets the latest 10 day(s).
| Time | Temp. | Humidity | Pressure | Rain* | Wind** | Luminosity | Snow |
|---|---|---|---|---|---|---|---|
| 1778108914 | 11.67° C | 61% | 1011.1 hPa | 0 mm | - | 32 W/m² | - |
| 1778108611 | 11.67° C | 60% | 1011.1 hPa | 0 mm | - | 38 W/m² | - |
| 1778108307 | 11.67° C | 59% | 1011 hPa | 0 mm | - | 46 W/m² | - |
| 1778108004 | 11.67° C | 60% | 1011.3 hPa | 0 mm | - | 50 W/m² | - |
| 1778107701 | 11.67° C | 60% | 1010.9 hPa | 0 mm | - | 53 W/m² | - |
| 1778107398 | 11.67° C | 59% | 1010.8 hPa | 0 mm | - | 58 W/m² | - |
| 1778107095 | 11.67° C | 58% | 1010.8 hPa | 0 mm | - | 78 W/m² | - |
| 1778106790 | 11.67° C | 58% | 1010.7 hPa | 0 mm | - | 86 W/m² | - |
| 1778106488 | 11.67° C | 59% | 1010.6 hPa | 0 mm | - | 86 W/m² | - |
| 1778106183 | 11.67° C | 61% | 1010.7 hPa | 0 mm | - | 85 W/m² | - |
| 1778105881 | 11.67° C | 58% | 1010.9 hPa | 0 mm | - | 85 W/m² | - |
| 1778105579 | 11.67° C | 62% | 1010.8 hPa | 0 mm | - | 104 W/m² | - |
| 1778105275 | 12.22° C | 57% | 1010.9 hPa | 0 mm | - | 97 W/m² | - |
| 1778104970 | 12.22° C | 57% | 1010.7 hPa | 0 mm | - | 75 W/m² | - |
| 1778104667 | 12.22° C | 61% | 1010.6 hPa | 0 mm | - | 101 W/m² | - |
| 1778104363 | 12.22° C | 59% | 1010.6 hPa | 0 mm | - | 123 W/m² | - |
| 1778104059 | 12.22° C | 60% | 1010.4 hPa | 0 mm | - | 129 W/m² | - |
| 1778103757 | 12.22° C | 60% | 1010.4 hPa | 0 mm | - | 128 W/m² | - |
| 1778103455 | 11.67° C | 58% | 1010.2 hPa | 0 mm | - | 137 W/m² | - |
| 1778103151 | 11.67° C | 57% | 1010.4 hPa | 0 mm | - | 126 W/m² | - |
| 1778102849 | 11.67° C | 57% | 1010.5 hPa | 0 mm | - | 112 W/m² | - |
| 1778102545 | 11.67° C | 59% | 1010.4 hPa | 0 mm | - | 95 W/m² | - |
| 1778102240 | 11.67° C | 58% | 1010.4 hPa | 0 mm | - | 95 W/m² | - |
| 1778101937 | 11.67° C | 59% | 1010.4 hPa | 0 mm | - | 118 W/m² | - |
| 1778101633 | 11.67° C | 59% | 1010.3 hPa | 0 mm | - | 99 W/m² | - |
* Rain latest hour (hover to see other rain measurements)
** Current wind speed in m/s (hover to see current wind gust speed)